Location: Unspecified
(48.6244°N, 0.0000°E)
Time: 02:57:38
(UTC+00:00)

Tiangong 2 - Visible Passes

Search period start: 21 May 2019 00:00
Search period end: 31 May 2019 00:00
Orbit: 379 x 387 km, 42.8° (Epoch: 20 May)

Date Brightness Start Highest point End Pass type
(mag) Time Alt. Az. Time Alt. Az. Time Alt. Az.
21 May 2.3 21:33:51 10° SW 21:36:04 25° S 21:36:04 25° S visible
22 May 2.4 20:34:11 10° SW 20:36:40 22° SSE 20:39:08 10° ESE visible
22 May 3.0 22:10:11 10° WSW 22:11:20 18° SW 22:11:20 18° SW visible
23 May 2.1 21:10:17 10° WSW 21:13:01 27° S 21:14:10 21° SE visible
24 May 2.4 21:46:46 10° WSW 21:49:04 24° SSW 21:49:04 24° SSW visible
25 May 2.2 20:46:47 10° WSW 20:49:29 27° S 20:51:41 13° SE visible
25 May 3.7 22:23:42 10° WSW 22:23:51 11° WSW 22:23:51 11° WSW visible
26 May 2.6 21:23:25 10° WSW 21:25:48 20° SSW 21:26:25 19° S visible
27 May 2.5 20:23:19 10° WSW 20:25:55 24° S 20:28:33 10° SE visible
27 May 3.7 22:01:05 10° SW 22:01:07 10° SW 22:01:07 10° SW visible
28 May 3.1 21:00:12 10° WSW 21:02:10 16° SSW 21:03:38 12° S visible
30 May 3.5 20:37:28 10° SW 20:38:28 11° SSW 20:39:27 10° S visible
